Regional Weather Roundup
Issued by NWS

Home | Current Version | Previous Version | Text Only | Print | Product List | Glossary Off
Versions: 1 2 3 4 5 6 7 8 9 10 11 12 13 14 15 16 17 18 19 20 21 22 23 24 25 26 27 28 29 30 31 32 33 34 35 36 37 38 39 40 41 42 43 44 45 46 47 48 49 50

000
ASUS45 KTFX 022319
RWRMT
MONTANA HOURLY WEATHER ROUNDUP
NATIONAL WEATHER SERVICE GREAT FALLS MT
419 PM MST MON MAR 2 2015

NOTE: "FAIR" INDICATES FEW OR NO CLOUDS BELOW 12000 FEET WITH NO
SIGNIFICANT WEATHER AND/OR OBSTRUCTIONS TO VISIBILITY.

* THESE STATIONS ARE NOT UNDER NWS QUALITY CONTROL. THEY DO NOT
   REPORT WEATHER SUCH AS PRECIPITATION OR FOG.

MTZ001>007-043-030000-
WEST OF THE DIVIDE
CITY           SKY/WX    TMP DP  RH WIND       PRES   REMARKS
KALISPELL      CLOUDY    30   9  41 NE22G32   29.91R WCI  17
MISSOULA       LGT SNOW  30  27  89 CALM      29.83S VSB 2 1/2
BUTTE          CLOUDY    30  16  56 NW8       29.70S WCI  22
MULLAN PASS    HVY SNOW  21  19  92 CALM      29.71S VSB M1/4
* ANACONDA     CLOUDY    28  19  69 N17G25     N/A   WCI  16
* ESSEX        N/A       23   7  50 NE8G19     N/A   WCI  14
* EUREKA APT   PTSUNNY   30   7  38 NE12G30   29.97R WCI  20
* HAMILTON APT CLOUDY    37  12  36 N10       29.75S WCI  30
* LIBBY APT    CLOUDY    30  27  89 CALM      29.93R VSB 1 1/4
* LINCOLN      N/A       27  19  72 NE13G26    N/A   WCI  16
* LOOKOUT PASS N/A       26  25  96 VRB5       N/A   WCI  20
* POLSON       N/A       28  23  81 N3G8       N/A
* RONAN APT    CLOUDY    28  27  96 N/A        N/A
* SEELEY LAKE  N/A       28  24  85 NW4        N/A
* THOMP F APT  CLOUDY    37   6  27 S6         N/A   WCI  32
* YAAK HILL    N/A       35  26  70 N/A        N/A
$$

MTZ008-052>055-030000-
SOUTHWEST MONTANA
CITY           SKY/WX    TMP DP  RH WIND       PRES   REMARKS
BOZEMAN        PTCLDY    39  12  33 N21       29.70F WCI  29
DILLON         PTCLDY    43   3  19 N5        29.63F
* W YELLOWSTON PTSUNNY   35   7  31 N3G8       N/A
* THREE FORKS  PTCLDY    36  18  48 N20G31     N/A   WCI  25
* BOULDER HILL N/A       23  18  81 N16G24     N/A   WCI  10
* MONIDA PASS  N/A       34   1  24 NE6        N/A   WCI  29
* RAYNOLDS PAS N/A       35  34  96 VRB2       N/A
* WHITEHALL    N/A       38  10  31 N14G25     N/A   WCI  30
* WISE RIVER   N/A       35   7  31 E13G20     N/A   WCI  26
$$

MTZ009>010-012-014-046-048-049-054-030000-
EAST SLOPES AND CENTRAL MONTANA
CITY           SKY/WX    TMP DP  RH WIND       PRES   REMARKS
CUT BANK       CLOUDY    19  12  74 N20       30.01R WCI   3
GREAT FALLS    CLOUDY    21  16  81 N25G32    29.96R WCI   4
HELENA         CLOUDY    28  19  69 N25G31    29.86R WCI  13
MALMSTROM AFB  LGT SNOW  25  16  69 N24G35    29.96R WCI  10
* CONRAD       PTSUNNY   23  16  74 NW24G31    N/A   WCI   7
* DEARBORN     N/A       25  21  85 N18G32     N/A   WCI  11
* EAST GLACIER N/A       14   9  80 NE21       N/A   WCI  -4
* MONARCH      N/A       19  15  84 N16        N/A   WCI   4
* PENDROY      N/A       18  11  74 NE24G30    N/A
* ROGERS PASS  N/A       16  13  88 S7G15      N/A   WCI   6
* SWEET GRASS  N/A       18  13  81 N21G28     N/A   WCI   1
* WHITE SULPH  N/A       26  19  75 NW13G19    N/A   WCI  15
$$

MTZ011-013-016-021-035-040-045-047-050-051-030000-
NORTH CENTRAL MONTANA
CITY           SKY/WX    TMP DP  RH WIND       PRES   REMARKS
HAVRE          CLOUDY    27  12  53 N20       30.01R WCI  13
LEWISTOWN      LGT SNOW  27  19  72 NW14G21   29.87R VSB 3    WCI  16
* N BAR RANCH  HAZE      27  19  72 NW22G31   29.81F VSB 3    WCI  13
* CHINOOK      PTSUNNY   25   9  50 NW20G28   30.02R WCI  11
* FORT BENTON  PTCLDY    25  12  58 NW20G25   30.01R WCI  11
* CHESTER      N/A       22  11  62 N17G30     N/A   WCI   8
* DENTON       N/A       27  17  66 NW19G30    N/A   WCI  14
* GEYSER       N/A       23  17  78 N18        N/A   WCI   9
* JUDITH GAP   N/A       23  23 100 N30G35     N/A   WCI   5
* LOMA         N/A       26  15  63 NW23G30    N/A   WCI  11
$$

MTZ017>020-022>027-061-062-030000-
NORTHEAST MONTANA
CITY           SKY/WX    TMP DP  RH WIND       PRES   REMARKS
GLASGOW        CLOUDY    27  14  58 NW28G35   29.87R WCI  11
GLENDIVE       PTCLDY    39  18  43 NW23G29   29.75S WCI  28
JORDAN         PTCLDY    34  21  59 NW21G29   29.81F WCI  22
SIDNEY         PTCLDY    39  18  43 W16G22    29.77R WCI  30
WOLF POINT     CLOUDY    34  21  59 N20G31    29.84R WCI  23
* BEAVER HILL  N/A       41  13  32 W18G23     N/A
* CIRCLE       N/A       36  21  54 NW14G23    N/A   WCI  27
* LINDSAY DVD  N/A       36  21  54 NW26G35    N/A   WCI  24
* NAVAJO       N/A       22  15  74 NW32G40    N/A   WCI   4
* PLENTYWOOD A PTCLDY    23  18  81 NW25G35   29.78R WCI   7
* POPLAR APT   PTSUNNY   30  19  64 NW23G30   29.82R WCI  17
* SACO         N/A       26  14  60 NW26G33    N/A   WCI  10
$$

MTZ028>042-056>058-030000-
SOUTHCENTRAL AND SOUTHEAST MONTANA
CITY           SKY/WX    TMP DP  RH WIND       PRES   REMARKS
BAKER          PTSUNNY   43  14  31 NW15      29.73F
BILLINGS       PTSUNNY   41  14  33 NE25G32   29.73R
LIVINGSTON     PTCLDY    37  19  48 E20G25    29.71R WCI  27
MILES CITY     PTCLDY    43  16  34 NW22      29.75S
* BIG TIMBER A PTCLDY    32  18  56 N17G23    29.75R WCI  21
* FORSYTH APT  PTCLDY    39  19  45 NW13G18   29.78R WCI  31
* LAUREL APT   PTCLDY    45  10  24 N9         N/A
* ROUNDUP APT  PTSUNNY   36  16  44 N24G31     N/A   WCI  24
* ALZADA       N/A       41  14  33 NW9        N/A
* HYSHAM       N/A       36  15  42 NW8G17     N/A   WCI  30
* LAME DEER    N/A       34  14  44 N13        N/A   WCI  25
* REED POINT   N/A       41  15  35 N11G18     N/A
* ROSCOE HILL  N/A       33   1  25 S6         N/A   WCI  27
$$

REGIONAL REPORTS...DAKOTAS
CITY           SKY/WX    TMP DP  RH WIND       PRES   REMARKS
WILLISTON      PTSUNNY   37  19  48 W9        29.72S WCI  30
DICKINSON      PTCLDY    43  14  31 W16       29.68F
BEACH          SUNNY     39  18  43 W13       29.73R WCI  31
CROSBY         SUNNY     28  21  75 NW23G28   29.75R WCI  14
TIOGA          SUNNY     32  19  59 NW8       29.72F WCI  25
WATFORD CITY   SUNNY     39  18  43 W20       29.71R WCI  29
BISMARCK       PTCLDY    39  25  57 S9        29.75F WCI  33
GRAND FORKS    PTCLDY    28  18  66 S23G31    29.94F WCI  14
FARGO          CLOUDY    30  16  56 S23G37    29.98F WCI  17
BUFFALO SD     PTSUNNY   45  12  26 W13       29.65F
RAPID CITY     PTSUNNY   46  28  50 N10       29.69F
$$

REGIONAL REPORTS...WYOMING/IDAHO/WASHINGTON
CITY           SKY/WX    TMP DP  RH WIND       PRES   REMARKS
GILLETTE       CLOUDY    39  14  36 E10       29.69F WCI  32
SHERIDAN       PTSUNNY   43  10  26 W6        29.70F
CODY           CLOUDY    37  16  42 NE6       29.67F WCI  32
YELLOWSTONE LA CLOUDY    28   1  31 CALM      29.64F
SALMON         PTSUNNY   43   9  25 N3        29.66F
MULLAN PASS    HVY SNOW  21  19  92 CALM      29.71S VSB M1/4
SAND POINT     CLOUDY    36  28  73 N8        29.89R WCI  30
SPOKANE        PTSUNNY   41  23  49 NW8       29.85F
$$

REGIONAL REPORTS...ALBERTA
CITY           SKY/WX    TMP DP  RH WIND       PRES   REMARKS
CALGARY        PTSUNNY   19   3  49 N26       30.09R WCI   1
LETHBRIDGE     LGT SNOW  25  18  75 N25       30.07R VSB 1    WCI   9
MEDICINE HAT   PTSUNNY   23  12  63 NW22G31   30.07R WCI   8
EDMONTON       SNOW      14  -4  44 NW23G35   30.20R WCI  -5
WATERTON GATE  N/A       18  14  84 N3         N/A
CARDSTON       N/A       19  18  96 N8         N/A   WCI   9
MILK RIVER     N/A       21  14  74 N17G23     N/A   WCI   7
$$

REGIONAL REPORTS...SASKATCHEWAN
CITY           SKY/WX    TMP DP  RH WIND       PRES   REMARKS
SWIFT CURRENT  LGT SNOW  14   9  80 NW26G38   29.92R WCI  -6
REGINA         LGT SNOW  16  14  92 NW37      29.80R VSB 3    WCI  -6
VAL MARIE      N/A       21  12  68 N26G33     N/A   WCI   4
ASSINIBOIA     N/A       18  12  77 N29G36     N/A   WCI  -1
CORONACH       N/A       19  14  81 NW25G32    N/A   WCI   1

$$




USA.gov is the U.S. government's official web portal to all federal, state and local government web resources and services.